Regional Weather Roundup
Issued by NWS

Home | Current Version | Previous Version | Graphics & Text | Print | Product List | Glossary Off
Versions: 1 2 3 4 5 6 7 8 9 10 11 12 13 14 15 16 17 18 19 20 21 22 23 24 25 26 27 28 29 30 31 32 33 34 35 36 37 38 39 40 41 42 43 44 45 46 47 48 49 50

000
ASUS43 KDMX 221007
RWRIA

WEATHER ROUNDUP FOR IOWA
NATIONAL WEATHER SERVICE DES MOINES IA
500 AM CDT MON SEP 22 2014

NOTE: "FAIR" INDICATES FEW OR NO CLOUDS BELOW 12,000 FEET WITH NO
SIGNIFICANT WEATHER AND/OR OBSTRUCTIONS TO VISIBILITY.

* - THESE STATIONS ARE NOT NWS STATIONS...THUS NOT UNDER NWS
QUALITY CONTROL.  THEY ALSO DO NOT REPORT WEATHER SUCH
AS PRECIPITATION OR FOG.

IAZ001>003-012>014-020>022-031>034-043>046-221100-
   NORTHWEST IOWA

CITY           SKY/WX    TMP DP  RH WIND       PRES   REMARKS
CARROLL *      CLEAR     43  43 100 W5        30.29S
CHEROKEE *       N/A     43  43 100 CALM      30.30R FOG
DENISON *      CLEAR     45  45 100 CALM      30.29R
LE MARS *        N/A     45  43  93 CALM      30.30S
ORANGE CITY *  CLEAR     48  45  87 CALM      30.29S
SHELDON *      CLEAR     41  41 100 CALM      30.28S
SIOUX CITY     CLEAR     45  44  97 CALM      30.29S
SPENCER        CLEAR     42  40  92 W3        30.29R
STORM LAKE *   CLEAR     46  46 100 W8        30.29S
$$

IAZ055>058-069>071-079>083-090>094-221100-
   SOUTHWEST IOWA

CITY           SKY/WX    TMP DP  RH WIND       PRES   REMARKS
ATLANTIC *     CLEAR     45  45 100 CALM      30.30R
AUDUBON *      CLEAR     43  37  81 CALM      30.31R
CLARINDA *     CLEAR     45  45 100 N3        30.32R
COUNCIL BLFS * CLEAR     50  50 100 CALM      30.29R
CRESTON *      CLEAR     46  46 100 NW6       30.30R
HARLAN  *      CLEAR     45  45 100 CALM      30.34R
LAMONI         CLEAR     47  45  93 NW5       30.29R
RED OAK *      PTCLDY    45  45 100 CALM      30.31R
SHENANDOAH *   CLEAR     45  45 100 CALM      30.31S
$$

IAZ047>049-059>061-072>074-084-221100-
   CENTRAL IOWA

CITY           SKY/WX    TMP DP  RH WIND       PRES   REMARKS
AMES           CLEAR     44  44 100 CALM      30.27R
ANKENY *       CLEAR     45  45 100 CALM      30.28R
CHARITON *     CLEAR     48  46  93 CALM      30.27S
DES MOINES     CLEAR     50  47  89 CALM      30.27R
GRINNELL*      CLEAR     46  45  93 NW3       30.27S
KNOXVILLE *    CLEAR     46  45  93 CALM      30.26R
MARSHALLTOWN   CLEAR     45  44  97 NW5       30.27R
PELLA *        CLEAR     46  46 100 CALM      30.28R
PERRY *          N/A     45  45 100 W6        30.29R
$$

IAZ004>006-015-016-023>025-035-036-221100-
   NORTH CENTRAL IOWA

CITY           SKY/WX    TMP DP  RH WIND       PRES   REMARKS
ALGONA *       CLEAR     45  45 100 CALM      30.27S
CLARION *        N/A     41  41 100 CALM      30.27R
ESTHERVILLE    CLEAR     41  41 100 SW3       30.27R
FORT DODGE *   PTCLDY    43  41  93 CALM      30.28S
MASON CITY     CLEAR     43  42  97 CALM      30.27S
FOREST CITY *  CLEAR     43  43 100 CALM      30.27R FOG
IOWA FALLS *     N/A     43  41  93 CALM      30.27F
$$

IAZ007>011-017>019-026>030-037>042-050>054-066-221100-
   NORTHEAST IOWA

CITY           SKY/WX    TMP DP  RH WIND       PRES   REMARKS
CEDAR RAPIDS   CLEAR     43  43 100 NW3       30.25R
CHARLES CITY * CLEAR     45  43  93 NW3       30.26S FOG
CLINTON *      CLEAR     43  39  87 N7        30.27R
DECORAH *      CLEAR     45  45 100 CALM      30.24S
DUBUQUE        CLEAR     40  39  97 W3        30.25R
MONTICELLO *   CLEAR     39  39 100 CALM      30.25S
OELWEIN *      CLEAR     43  43 100 CALM      30.26S
WATERLOO       PTCLDY    42  42 100 CALM      30.26R FOG
$$

IAZ064-065-067-068-078-221100-
   EAST CENTRAL IOWA

CITY           SKY/WX    TMP DP  RH WIND       PRES   REMARKS
DAVENPORT      CLEAR     41  38  89 NW6       30.25R
IOWA CITY        N/A     44  43  96 W3        30.27R
MT. PLEASANT * CLEAR     46  45  93 N5        30.25S
MUSCATINE *    CLEAR     46  45  93 CALM      30.25S
QUAD CITIES    CLEAR     44  42  93 CALM      30.25R
$$

IAZ062-063-075>077-085>089-095>099-221100-
   SOUTHEAST IOWA

CITY           SKY/WX    TMP DP  RH WIND       PRES   REMARKS
BURLINGTON     CLEAR     48  46  93 N5        30.24R
FAIRFIELD *    CLEAR     46  45  93 NW5       30.27R
FORT MADISON * CLEAR     48  48 100 CALM      30.26R
KEOKUK *       CLEAR     50  48  93 N6        30.25R
OSKALOOSA *      N/A     45  45 100 N3        30.27R
CENTERVILLE *  CLEAR     46  46 100 NW5       30.28R
OTTUMWA        CLEAR     44  42  93 NW5       30.26R
WASHINGTON *   CLEAR     46  46 100 N6        30.25S
$$

ABBREVIATIONS USED IN REMARKS
   TC - TEMPERATURES IN CELSIUS
  WCI - WIND CHILL INDEX
   HX - HEAT INDEX
  VSB - VISIBILITY
$$




USA.gov is the U.S. government's official web portal to all federal, state and local government web resources and services.